Tracking 19575 objects as of 20-Feb-2019
HD Live streaming from Space Station
objects crossing your sky now

GORIZONT 30

Track GORIZONT 30 now!
GORIZONT 30 is classified as:


NORAD ID: 23108
Int'l Code: 1994-030A
Perigee: 35,747.4 km
Apogee: 35,793.2 km
Inclination: 14.8 °
Period: 1,434.9 minutes
Semi major axis: 42141 km
RCS: 12.5892 m2 (large)
Launch date: May 20, 1994
Source: Commonwealth of Independent States (former USSR) (CIS)
Launch site: TYURATAM MISSILE AND SPACE COMPLEX (TTMTR)
aabbcc
Your satellite tracking list
Your tracking list is empty




NASA's NSSDC Master Catalog

Two Line Element Set (TLE):
1 23108U 94030A   19050.24125442 -.00000315 +00000-0 +00000-0 0  9999
2 23108 014.8337 010.2663 0005430 288.2691 238.6308 01.00355381090654
Source of the keplerian elements: AFSPC